ITY1269 LIRF-LIRN

Flight info

Callsign ITY1269
Flight time 0h 30m
Altitude 25000
Route RIFFI DCT PNZ
Aircraft A319/M-SDE3FGHIRWY/LB1

Departure

Time 2026-02-17 11:52
Airport Rome–Fiumicino Leonardo da Vinci International Airport (LIRF)

Arrival

Time 2026-02-17 12:23
Airport Naples International Airport (LIRN)
Time Latitude Longitude Altitude Speed Heading
2026-02-17 11:27 41.79764 12.25662 15 ft 0 kts 296°
2026-02-17 11:43 41.79762 12.25669 14 ft 2 kts 297°
2026-02-17 11:43 41.79752 12.25692 14 ft 3 kts 309°
2026-02-17 11:43 41.79738 12.25710 14 ft 3 kts 333°
2026-02-17 11:44 41.79722 12.25717 14 ft 2 kts 15°
2026-02-17 11:44 41.79713 12.25713 14 ft 1 kts 25°
2026-02-17 11:44 41.79712 12.25712 14 ft 0 kts 25°
2026-02-17 11:46 41.79714 12.25713 14 ft 1 kts 25°
2026-02-17 11:46 41.79729 12.25723 14 ft 4 kts 25°
2026-02-17 11:47 41.79823 12.25782 14 ft 9 kts 25°
2026-02-17 11:47 41.79870 12.25821 16 ft 0 kts 31°
2026-02-17 11:47 41.79871 12.25821 14 ft 0 kts 29°
2026-02-17 11:48 41.79873 12.25823 14 ft 1 kts 27°
2026-02-17 11:48 41.79894 12.25837 14 ft 6 kts 27°
2026-02-17 11:48 41.79946 12.25869 16 ft 11 kts 24°
2026-02-17 11:49 41.80028 12.25918 14 ft 15 kts 25°
2026-02-17 11:49 41.80121 12.25976 16 ft 15 kts 25°
2026-02-17 11:49 41.80218 12.26036 16 ft 16 kts 25°
2026-02-17 11:49 41.80319 12.26098 14 ft 16 kts 25°
2026-02-17 11:50 41.80419 12.26160 16 ft 16 kts 25°
2026-02-17 11:50 41.80505 12.26213 18 ft 0 kts 25°
2026-02-17 11:51 41.80528 12.26185 17 ft 10 kts 319°
2026-02-17 11:51 41.80594 12.26135 17 ft 12 kts 342°
2026-02-17 11:51 41.80673 12.26103 17 ft 12 kts 340°
2026-02-17 11:51 41.80704 12.26012 19 ft 19 kts 259°
2026-02-17 11:52 41.80609 12.25662 16 ft 74 kts 250°
2026-02-17 11:52 41.80350 12.24721 16 ft 138 kts 250°
2026-02-17 11:52 41.80004 12.23477 541 ft 136 kts 253°
2026-02-17 11:52 41.79658 12.22282 1055 ft 138 kts 253°
2026-02-17 11:53 41.79236 12.21119 1537 ft 142 kts 240°
2026-02-17 11:53 41.78522 12.20165 2039 ft 146 kts 224°
2026-02-17 11:53 41.77734 12.19282 2509 ft 148 kts 223°
2026-02-17 11:53 41.76947 12.18396 2977 ft 148 kts 223°
2026-02-17 11:54 41.76151 12.17500 3368 ft 154 kts 222°
2026-02-17 11:54 41.75276 12.16546 3553 ft 176 kts 218°
2026-02-17 11:54 41.74202 12.15526 3710 ft 204 kts 217°
2026-02-17 11:55 41.71633 12.13161 4781 ft 234 kts 216°
2026-02-17 11:55 41.70275 12.11919 5578 ft 238 kts 217°
2026-02-17 11:55 41.68890 12.10652 6329 ft 244 kts 217°
2026-02-17 11:55 41.67956 12.09796 6820 ft 248 kts 217°
2026-02-17 11:56 41.66521 12.08479 7563 ft 253 kts 217°
2026-02-17 11:56 41.65055 12.07130 8307 ft 258 kts 218°
2026-02-17 11:56 41.63561 12.05755 9066 ft 262 kts 218°
2026-02-17 11:56 41.61936 12.04568 9788 ft 271 kts 201°
2026-02-17 11:57 41.60060 12.04136 10494 ft 277 kts 178°
2026-02-17 11:57 41.58144 12.04654 10969 ft 291 kts 153°
2026-02-17 11:57 41.56448 12.06232 11297 ft 306 kts 129°
2026-02-17 11:57 41.54936 12.08389 11604 ft 330 kts 128°
2026-02-17 11:58 41.53310 12.10709 11877 ft 353 kts 128°
2026-02-17 11:58 41.51567 12.13171 12182 ft 374 kts 129°
2026-02-17 11:58 41.49746 12.15706 12825 ft 381 kts 130°
2026-02-17 11:59 41.46014 12.20848 14277 ft 389 kts 131°
2026-02-17 11:59 41.44116 12.23445 14983 ft 393 kts 131°
2026-02-17 11:59 41.42198 12.26067 15678 ft 398 kts 132°
2026-02-17 11:59 41.40260 12.28726 16394 ft 402 kts 132°
2026-02-17 12:00 41.38331 12.31379 16692 ft 401 kts 132°
2026-02-17 12:00 41.36387 12.34056 16784 ft 403 kts 132°
2026-02-17 12:00 41.34442 12.36739 16796 ft 404 kts 132°
2026-02-17 12:00 41.32463 12.39466 16800 ft 403 kts 132°
2026-02-17 12:01 41.30539 12.42118 16791 ft 404 kts 132°
2026-02-17 12:01 41.28591 12.44806 16788 ft 404 kts 133°
2026-02-17 12:01 41.26634 12.47477 16789 ft 403 kts 133°
2026-02-17 12:01 41.24672 12.50147 16786 ft 404 kts 132°
2026-02-17 12:02 41.22711 12.52826 16786 ft 404 kts 133°
2026-02-17 12:02 41.20748 12.55510 16782 ft 405 kts 133°
2026-02-17 12:02 41.18794 12.58196 16680 ft 408 kts 133°
2026-02-17 12:03 41.14857 12.63616 16156 ft 407 kts 132°
2026-02-17 12:03 41.12889 12.66294 15901 ft 403 kts 133°
2026-02-17 12:03 41.10932 12.68948 15698 ft 402 kts 132°
2026-02-17 12:03 41.08983 12.71605 15443 ft 403 kts 132°
2026-02-17 12:04 41.07038 12.74255 15176 ft 400 kts 132°
2026-02-17 12:04 41.05094 12.76901 14922 ft 400 kts 132°
2026-02-17 12:04 41.03181 12.79496 14675 ft 398 kts 132°
2026-02-17 12:04 41.01247 12.82112 14423 ft 397 kts 132°
2026-02-17 12:05 40.99321 12.84716 14173 ft 395 kts 132°
2026-02-17 12:05 40.97401 12.87313 13921 ft 394 kts 132°
2026-02-17 12:05 40.95489 12.89900 13667 ft 393 kts 132°
2026-02-17 12:05 40.93582 12.92479 13416 ft 391 kts 132°
2026-02-17 12:06 40.91796 12.95170 13166 ft 388 kts 124°
2026-02-17 12:06 40.90368 12.98160 12913 ft 382 kts 114°
2026-02-17 12:06 40.89253 13.01335 12663 ft 380 kts 110°
2026-02-17 12:07 40.87084 13.07661 12169 ft 377 kts 110°
2026-02-17 12:07 40.85993 13.10804 11910 ft 375 kts 110°
2026-02-17 12:07 40.84902 13.13931 11657 ft 374 kts 110°
2026-02-17 12:07 40.83818 13.17043 11412 ft 373 kts 111°
2026-02-17 12:08 40.82738 13.20151 11158 ft 372 kts 111°
2026-02-17 12:08 40.81660 13.23247 10904 ft 371 kts 111°
2026-02-17 12:08 40.80586 13.26335 10658 ft 369 kts 111°
2026-02-17 12:08 40.79520 13.29393 10409 ft 361 kts 111°
2026-02-17 12:09 40.78479 13.32354 10163 ft 349 kts 111°
2026-02-17 12:09 40.77472 13.35222 9915 ft 340 kts 111°
2026-02-17 12:09 40.76492 13.38017 9664 ft 331 kts 111°
2026-02-17 12:09 40.75538 13.40729 9526 ft 319 kts 111°
2026-02-17 12:10 40.74565 13.43302 9398 ft 308 kts 118°
2026-02-17 12:10 40.73272 13.45522 9270 ft 302 kts 132°
2026-02-17 12:10 40.71689 13.47286 9145 ft 294 kts 144°
2026-02-17 12:11 40.68437 13.50310 8882 ft 285 kts 144°
2026-02-17 12:11 40.66801 13.51833 8762 ft 284 kts 144°
2026-02-17 12:11 40.65199 13.53322 8633 ft 284 kts 144°
2026-02-17 12:11 40.63591 13.54817 8505 ft 283 kts 143°
2026-02-17 12:12 40.62169 13.56584 8380 ft 281 kts 124°
2026-02-17 12:12 40.61238 13.58799 8255 ft 275 kts 104°
2026-02-17 12:12 40.60866 13.61220 8145 ft 266 kts 86°
2026-02-17 12:12 40.60938 13.63633 8042 ft 263 kts 80°
2026-02-17 12:13 40.61045 13.66040 7923 ft 264 kts 80°
2026-02-17 12:13 40.61142 13.68445 7803 ft 263 kts 80°
2026-02-17 12:13 40.61237 13.70848 7708 ft 263 kts 81°
2026-02-17 12:13 40.61332 13.73256 7593 ft 263 kts 81°
2026-02-17 12:14 40.61428 13.75657 7467 ft 261 kts 79°
2026-02-17 12:14 40.61748 13.77939 7347 ft 246 kts 63°
2026-02-17 12:14 40.62482 13.79905 7225 ft 235 kts 49°
2026-02-17 12:15 40.64184 13.83021 6991 ft 232 kts 47°
2026-02-17 12:15 40.64955 13.84446 6875 ft 232 kts 48°
2026-02-17 12:15 40.65390 13.85254 6787 ft 232 kts 47°
2026-02-17 12:15 40.66323 13.86991 6654 ft 232 kts 48°
2026-02-17 12:16 40.67243 13.88705 6504 ft 232 kts 48°
2026-02-17 12:16 40.68172 13.90439 6350 ft 232 kts 48°
2026-02-17 12:16 40.69104 13.92181 6214 ft 232 kts 48°
2026-02-17 12:16 40.70142 13.93912 6100 ft 253 kts 43°
2026-02-17 12:17 40.71229 13.95684 5950 ft 242 kts 47°
2026-02-17 12:17 40.72178 13.97451 5837 ft 230 kts 49°
2026-02-17 12:17 40.73066 13.99149 5724 ft 220 kts 48°
2026-02-17 12:17 40.73932 14.00798 5611 ft 217 kts 48°
2026-02-17 12:18 40.74789 14.02426 5492 ft 217 kts 47°
2026-02-17 12:18 40.75645 14.04052 5234 ft 215 kts 47°
2026-02-17 12:18 40.76496 14.05669 4924 ft 215 kts 48°
2026-02-17 12:19 40.78195 14.08910 4264 ft 215 kts 47°
2026-02-17 12:19 40.79046 14.10534 3943 ft 215 kts 48°
2026-02-17 12:19 40.79899 14.12161 3615 ft 216 kts 47°
2026-02-17 12:19 40.80745 14.13777 3284 ft 217 kts 48°
2026-02-17 12:20 40.81592 14.15398 2932 ft 210 kts 47°
2026-02-17 12:20 40.82396 14.16940 2626 ft 199 kts 49°
2026-02-17 12:20 40.83164 14.18407 2326 ft 189 kts 50°
2026-02-17 12:20 40.83887 14.19789 2040 ft 176 kts 50°
2026-02-17 12:21 40.84557 14.21071 1785 ft 161 kts 51°
2026-02-17 12:21 40.85163 14.22232 1535 ft 146 kts 52°
2026-02-17 12:21 40.85721 14.23301 1311 ft 138 kts 53°
2026-02-17 12:21 40.86259 14.24327 1116 ft 135 kts 52°
2026-02-17 12:22 40.86786 14.25337 905 ft 133 kts 53°
2026-02-17 12:22 40.87303 14.26343 669 ft 132 kts 56°
2026-02-17 12:22 40.87794 14.27368 466 ft 133 kts 56°
2026-02-17 12:23 40.88662 14.29203 264 ft 51 kts 58°
2026-02-17 12:23 40.88765 14.29446 258 ft 22 kts 93°
2026-02-17 12:23 40.88743 14.29481 258 ft 0 kts 159°
2026-02-17 12:24 40.88738 14.29487 258 ft 3 kts 147°
2026-02-17 12:24 40.88708 14.29513 258 ft 8 kts 146°
2026-02-17 12:24 40.88652 14.29562 258 ft 12 kts 147°
2026-02-17 12:24 40.88585 14.29540 259 ft 11 kts 230°
2026-02-17 12:25 40.88537 14.29457 262 ft 13 kts 232°
2026-02-17 12:25 40.88481 14.29360 264 ft 13 kts 232°
2026-02-17 12:25 40.88430 14.29272 267 ft 11 kts 232°
2026-02-17 12:25 40.88385 14.29194 269 ft 10 kts 233°
2026-02-17 12:26 40.88346 14.29126 271 ft 9 kts 233°
2026-02-17 12:26 40.88313 14.29068 276 ft 7 kts 233°
2026-02-17 12:26 40.88281 14.29012 275 ft 8 kts 232°
2026-02-17 12:27 40.88213 14.28896 276 ft 6 kts 233°
2026-02-17 12:27 40.88196 14.28866 277 ft 3 kts 233°
2026-02-17 12:27 40.88180 14.28836 278 ft 5 kts 233°
2026-02-17 12:27 40.88154 14.28793 281 ft 7 kts 232°
2026-02-17 12:28 40.88119 14.28733 282 ft 9 kts 233°
2026-02-17 12:28 40.88072 14.28649 284 ft 13 kts 233°
2026-02-17 12:28 40.88015 14.28553 286 ft 12 kts 231°
2026-02-17 12:28 40.87966 14.28490 289 ft 9 kts 218°
2026-02-17 12:29 40.87939 14.28406 288 ft 11 kts 271°
2026-02-17 12:29 40.87947 14.28317 290 ft 8 kts 276°
2026-02-17 12:29 40.87952 14.28259 292 ft 5 kts 277°
2026-02-17 12:29 40.87955 14.28231 295 ft 1 kts 277°
2026-02-17 12:30 40.87955 14.28228 292 ft 0 kts 277°
2026-02-17 12:30 40.87957 14.28211 295 ft 5 kts 278°
2026-02-17 12:30 40.87958 14.28133 296 ft 11 kts 250°
2026-02-17 12:31 40.87882 14.28116 298 ft 5 kts 142°
2026-02-17 12:31 40.87866 14.28132 295 ft 0 kts 141°
2026-02-17 12:33 40.87866 14.28133 294 ft 0 kts 141°